[[{"header":{"parameterUnit":"m.s-1","parameterCategory":1,"la1":30.2992,"la2":30.254,"lo1":-89.0895,"lo2":-89.0443,"dy":0.0025,"dx":0.0025,"nx":19,"ny":19,"refTime":"2026-03-24T03:00:00:Z","depth":0,"parameterNumber":2,"parameterNumberName":"U-component_of_WINDS"},"data":[0,0,0,2.5418,2.542,2.5461,2.5461,2.556,2.5562,0,0,0,0,0,0,0,0,0,0,0,2.5432,2.5434,2.5418,2.542,2.5461,2.5461,2.556,2.5562,0,0,0,0,0,0,0,0,0,0,0,2.5432,2.5433,2.5435,2.542,2.5461,2.5461,2.556,2.5512,0,0,0,0,0,0,0,0,0,0,2.5464,2.5503,2.5433,2.5435,2.542,2.5461,2.5461,2.5509,2.5515,2.5561,0,2.5607,0,2.5586,2.5571,2.5572,0,0,0,2.54,2.5498,2.5485,2.5436,2.5421,2.5461,2.5437,2.5512,2.5519,2.5569,2.5608,2.5611,2.5588,2.5572,2.5573,2.5898,2.59,0,0,2.5398,2.5454,2.5481,2.5491,2.5486,2.5436,2.5439,2.5516,2.5563,2.5609,2.5612,2.559,2.5573,2.5574,2.5896,2.5899,0,0,0,2.5404,2.5454,2.5438,2.5488,2.5492,2.5437,2.5441,2.5559,2.5549,2.5613,2.5591,2.5574,2.5576,2.5893,2.5897,2.6072,0,0,0,2.5402,2.5457,2.5438,2.5473,2.5492,2.5526,2.5483,2.5544,2.555,2.559,2.5574,2.5577,2.589,2.5895,2.6061,2.6145,0,0,0,2.5421,2.5459,2.5474,2.5476,2.5496,2.5523,2.5517,2.5544,2.5538,2.5572,2.5577,2.5888,2.5894,2.6051,2.6129,2.6248,0,0,0,2.5457,2.563,2.5478,2.5663,2.5496,2.5631,2.5516,2.5614,2.5664,2.5575,2.589,2.5896,2.6048,2.612,2.6238,2.6357,2.6412,0,0,2.5707,2.5662,2.5766,2.5631,2.5808,2.562,2.5823,2.5815,2.5767,2.5857,2.5865,2.6065,2.6128,2.6246,2.67,2.6745,0,0,0,2.5864,2.594,2.5974,2.6024,2.6022,2.6027,2.5982,2.5979,2.6053,2.5825,2.6137,2.6173,2.624,2.6294,2.6332,2.6386,2.5924,2.5923,2.5923,2.6299,2.6228,2.6395,2.633,2.6379,2.6331,2.6365,2.6353,2.6267,2.6343,2.6369,2.6654,2.672,2.6748,2.6804,2.6426,2.6427,2.6428,2.6428,2.6659,2.6754,2.6636,2.6755,2.668,2.678,2.6742,2.6677,2.6761,2.6628,2.6683,2.6544,2.6798,2.6844,2.644,2.6438,2.6437,2.6436,2.6435,2.6935,2.6969,2.6962,2.7026,2.7085,2.7012,2.7098,2.7025,2.6958,2.7013,2.7033,2.703,2.7018,2.7027,2.7028,2.7029,2.703,2.7031,2.7032,2.7225,2.7212,2.7292,2.7305,2.7327,2.7348,2.7303,2.7323,2.7328,2.7269,2.7268,2.7176,2.6836,2.6752,2.7047,2.7044,2.7042,2.7041,2.704,2.7616,2.7516,2.764,2.7663,2.7672,2.7736,2.7642,2.7691,2.7698,2.7743,2.7638,2.7399,2.7348,2.7318,2.7248,2.7652,2.7652,2.7652,2.7652,2.785,2.7817,2.7927,2.7969,2.8001,2.793,2.8074,2.8041,2.7991,2.7992,2.7922,2.7824,2.7796,2.7762,2.7722,2.7655,2.8155,2.8155,2.8156,2.8086,2.8053,2.8189,2.8138,2.814,2.8145,2.8278,2.8331,2.8254,2.8175,2.799,2.7969,2.7809,2.776,2.7676,2.7616,2.7493,0,0]},{"header":{"parameterUnit":"m.s-1","parameterCategory":1,"la1":30.2992,"la2":30.254,"lo1":-89.0895,"lo2":-89.0443,"dy":0.0025,"dx":0.0025,"nx":19,"ny":19,"refTime":"2026-03-24T03:00:00:Z","depth":0,"parameterNumber":3,"parameterNumberName":"V-component_of_WINDS"},"data":[0,0,0,0.777,0.7775,0.8006,0.8007,0.8314,0.8317,0,0,0,0,0,0,0,0,0,0,0,0.7706,0.7708,0.7769,0.7775,0.8006,0.8007,0.8313,0.8317,0,0,0,0,0,0,0,0,0,0,0,0.7705,0.7708,0.7711,0.7776,0.8006,0.8007,0.8313,0.8135,0,0,0,0,0,0,0,0,0,0,0.7908,0.7854,0.7707,0.7711,0.7778,0.8006,0.8007,0.8126,0.8146,0.8213,0,0.8272,0,0.8299,0.8338,0.8339,0,0,0,0.7773,0.7838,0.7895,0.7711,0.778,0.8006,0.7901,0.8137,0.8159,0.8239,0.8276,0.8288,0.8304,0.834,0.8341,0.8731,0.8733,0,0,0.776,0.7751,0.788,0.791,0.7873,0.7894,0.7909,0.815,0.8191,0.8278,0.8295,0.8309,0.8342,0.8344,0.8729,0.8732,0,0,0,0.7725,0.7742,0.7794,0.7897,0.7938,0.7901,0.7918,0.8181,0.8198,0.8298,0.8313,0.8343,0.8347,0.8727,0.873,0.8817,0,0,0,0.7717,0.7722,0.7788,0.7785,0.7934,0.8062,0.7942,0.8181,0.8209,0.8311,0.8344,0.835,0.8725,0.8729,0.881,0.8861,0,0,0,0.769,0.7719,0.7753,0.7785,0.7883,0.8058,0.8089,0.8187,0.8218,0.8339,0.8351,0.8724,0.8728,0.8804,0.8851,0.8961,0,0,0,0.7658,0.783,0.7755,0.7952,0.7881,0.8109,0.8088,0.8259,0.8373,0.8345,0.8725,0.873,0.8802,0.8844,0.8954,0.9052,0.9091,0,0,0.787,0.7855,0.7972,0.7911,0.815,0.8075,0.8327,0.8442,0.8462,0.8641,0.865,0.8813,0.885,0.8959,0.9315,0.9347,0,0,0,0.8036,0.812,0.8185,0.8291,0.838,0.8461,0.8536,0.8578,0.8729,0.8551,0.8882,0.8905,0.8969,0.9016,0.9043,0.9099,0.8751,0.8751,0.875,0.8325,0.8339,0.8533,0.8574,0.8678,0.8752,0.8838,0.8907,0.8894,0.8972,0.9026,0.924,0.9295,0.9315,0.9373,0.9078,0.9078,0.9078,0.9079,0.8637,0.8757,0.8732,0.891,0.8925,0.9076,0.9154,0.9139,0.9282,0.9201,0.9259,0.9169,0.9349,0.94,0.9085,0.9084,0.9083,0.9083,0.9082,0.8828,0.8888,0.8934,0.9087,0.9204,0.9241,0.9379,0.9388,0.9397,0.9454,0.9511,0.951,0.951,0.948,0.9481,0.9482,0.9482,0.9483,0.9483,0.9009,0.9057,0.9171,0.9278,0.9346,0.9437,0.9512,0.958,0.9658,0.9654,0.9654,0.9633,0.9363,0.9295,0.9495,0.9493,0.9492,0.949,0.949,0.9321,0.9251,0.9427,0.9495,0.962,0.9736,0.9743,0.9881,0.9939,1.0006,0.9972,0.977,0.9757,0.9736,0.968,0.9968,0.9968,0.9968,0.9968,0.9483,0.9476,0.9657,0.9765,0.9872,0.9896,1.0095,1.0154,1.0205,1.0242,1.0201,1.0127,1.0105,1.0105,1.0075,1.0023,1.0393,1.0393,1.0393,0.9676,0.9679,0.9847,0.9892,0.999,1.0074,1.0262,1.0388,1.0431,1.0411,1.0271,1.0253,1.0133,1.0094,1.0073,1.0027,0.9932,0,0]}]]